Regional Weather Roundup
Issued by NWS

Home | Current Version | Previous Version | Graphics & Text | Print | Product List | Glossary On
Versions: 1 2 3 4 5 6 7 8 9 10 11 12 13 14 15 16 17 18 19 20 21 22 23 24 25 26 27 28 29 30 31 32 33 34 35 36 37 38 39 40 41 42 43 44 45 46 47 48 49 50
000
ASUS43 KOAX 200910
RWRNE

WEATHER ROUNDUP FOR NEBRASKA
NATIONAL WEATHER SERVICE OMAHA NE
300 AM CST SAT DEC 20 2014

NOTES: SATELLITE DATA IS BEING USED TO AUGMENT CLOUD COVER ABOVE
       12000 FEET.
       "FAIR" INDICATES FEW OR NO CLOUDS BELOW 12,000 FEET WITH NO
       SIGNIFICANT WEATHER AND/OR OBSTRUCTIONS TO VISIBILITY.

  * THESE STATIONS DO NOT REPORT WEATHER SUCH AS RAIN...SNOW OR FOG.

NEZ001>004-019>022-054>056-201000-
NEBRASKA PANHANDLE

CITY           SKY/WX    TMP DP  RH WIND       PRES   REMARKS
SCOTTSBLUFF    PTCLDY    16  12  84 N5        29.97S WCI   9
ALLIANCE       PTCLDY    10   8  92 W5        29.96S WCI   2
CHADRON        PTCLDY    14  10  84 SW3       29.95F
KIMBALL        PTCLDY    23  17  80 CALM      29.97R
SIDNEY         PTCLDY    15  11  83 W5        29.99S WCI   8
$$

NEZ057>060-069>072-079>082-201000-
SOUTHWEST NEBRASKA

CITY           SKY/WX    TMP DP  RH WIND       PRES   REMARKS
NORTH PLATTE   CLEAR     18  15  88 CALM      30.03R FOG
IMPERIAL       CLEAR     22  17  81 W6        30.02S WCI  14
LEXINGTON      CLEAR     23  21  93 W10       30.03S FOG     WCI  12
MCCOOK         PTCLDY    25  22  88 W9        30.04R WCI  15
OGALLALA       CLEAR     15  13  93 W3        30.02S
$$

NEZ005>010-023>029-035>040-094-201000-
NORTH CENTRAL NEBRASKA

CITY           SKY/WX    TMP DP  RH WIND       PRES   REMARKS
VALENTINE      CLEAR     17  14  88 SW6       29.98S WCI   9
AINSWORTH      CLEAR     21  17  85 SW6       29.98S WCI  14
BROKEN BOW     CLEAR     22  18  85 CALM      30.01R
O`NEILL        FOG      N/A N/A N/A CALM      30.01S VSB 1/4
THEDFORD       CLEAR     19  17  92 W5        30.01R WCI  13
$$

NEZ041-046>049-061>064-073>077-083>087-201000-
SOUTH CENTRAL NEBRASKA

CITY           SKY/WX    TMP DP  RH WIND       PRES   REMARKS
GRAND ISLAND   CLOUDY    31  30  96 CALM      30.05S FOG
AURORA         FOG       32  32 100 CALM      30.05S VSB 3/4
HASTINGS       FOG       27  25  92 N6        30.03S VSB 1/4 WCI  20
HEBRON         FOG       32  31  95 SW6       30.08R VSB 1/2 WCI  26
HOLDREGE       CLEAR     28  25  87 W5        30.03R WCI  23
KEARNEY *      CLEAR     18  16  93 CALM      30.03S
YORK           FOG       32  32 100 CALM      30.06S VSB 1
$$

NEZ011>018-030>034-042>045-201000-
NORTHEAST NEBRASKA

CITY           SKY/WX    TMP DP  RH WIND       PRES   REMARKS
NORFOLK        CLOUDY    33  32  96 S6        30.05S FOG     WCI  28
ALBION         CLOUDY    32  31  94 S5        30.03S FOG     WCI  28
BLAIR          CLOUDY    32  31  94 S9        30.10S FOG     WCI  24
COLUMBUS *     CLOUDY    32  28  86 S6        30.08S WCI  26
FREMONT        CLOUDY    33  32  99 SE8       30.11S FOG     WCI  25
TEKAMAH        CLOUDY    32  31  96 SE9       30.12R FOG     WCI  24
WAYNE          CLOUDY    32  32  97 S8        30.08R FOG     WCI  25
$$

NEZ050>053-065>068-078-088>093-201000-
SOUTHEAST NEBRASKA

CITY           SKY/WX    TMP DP  RH WIND       PRES   REMARKS
LINCOLN        CLOUDY    33  30  88 SE6       30.11R WCI  28
OMAHA EPPLEY   FRZ DRZL  31  30  96 SE9       30.14S FOG     WCI  23
BEATRICE       CLOUDY    33  31  94 S7        30.09R WCI  27
FALLS CITY     CLOUDY    32  28  85 SE12      30.15S WCI  23
NEBRASKA CITY  CLOUDY    31  31 100 S10       30.12F FOG     WCI  22
PLATTSMOUTH    CLOUDY    31  29  94 SE9       30.12F FOG     WCI  22
$$

NEZ044-045-051>053-067-201000-
OMAHA AREA

CITY           SKY/WX    TMP DP  RH WIND       PRES   REMARKS
OMAHA EPPLEY   FRZ DRZL  31  30  96 SE9       30.14S FOG     WCI  23
BLAIR          CLOUDY    32  31  94 S9        30.10S FOG     WCI  24
FREMONT        CLOUDY    33  32  99 SE8       30.11S FOG     WCI  25
MILLARD        CLOUDY    32  30  94 SE8       30.13R FOG     WCI  25
OFFUTT AFB     FRZ DRZL  32  30  93 SE7       30.12F FOG     WCI  26
PLATTSMOUTH    CLOUDY    31  29  94 SE9       30.12F FOG     WCI  22
WAHOO          CLOUDY    32  30  93 SE7       30.10S FOG     WCI  25
$$


USA.gov is the U.S. government's official web portal to all federal, state and local government web resources and services.